Погода в Переяславке

Россия / Хабаровский край     47°58′07″N   135°03′11″E
темп.,
°C
ветер,
м/с
пор.,
м/с
влажн.,
%
обл.,
%
осадки,
мм/ч
давл.,
гПа
погр.,
м
11 мая, вт
вт1101:00+5ссв3775100 0.0 1014239
04:00+3ссв248165 0.0 101592
07:00+4ссв257391 0.0 1016307
10:00+8ссв355785 0.0 1017946
13:00+12с344891 0.0 10171721
16:00+12ссз224997 0.0 10161448
19:00+12ссз1156100 0.0 1017654
22:00+9св22689 0.0 101816
12 мая, ср
ср1201:00+6в22745 0.0 101814
04:00+5вюв22769 0.0 101823
07:00+6вюв257410 0.0 1017128
10:00+14ююв5654100 0.0 10151043
13:00+17ю6843100 0.0 10121935
16:00+16ююз6950100 0.0 10111832
19:00+11ююз61182100 1.6 10111048
22:00+10ю5118392 3.6 1011583
13 мая, чт
чт1301:00+9ю389099 0.0 1010433
04:00+8ююв369377 0.0 1010194
07:00+9ю488982 0.1 1010357
10:00+13ююз576987 0.1 10091028
13:00+16юз81158100 0.3 10081950
16:00+19з913419 0.7 10072552
19:00+18зюз364821 0.0 1007135
22:00+12св346963 0.0 100949
14 мая, пт
пт1401:00+10в228110 0.0 101017
04:00+9ююв22865 0.0 101113
07:00+11ю13835 0.0 101289
10:00+18ююз34557 0.0 1011633
13:00+23ю35345 0.0 10092457
16:00+24юз6730100 0.0 10072819
19:00+20юз3751100 0.0 1006151
22:00+16ю3458100 0.0 100659
15 мая, сб
сб1501:00+16ю51361100 0.1 1004484
04:00+14ююв61288100 3.9 1001727
07:00+13ююз71489100 2.9 999927
10:00+14ююз91692100 5.2 9981045
13:00+13зюз81277100 1.3 10001191
16:00+17з61149100 1.4 10002485
19:00+11з6128499 0.9 1002630
22:00+13зсз613513 0.0 1003567